Regional Weather Roundup
Issued by NWS

Home | Current Version | Previous Version | Text Only | Print | Product List | Glossary On
Versions: 1 2 3 4 5 6 7 8 9 10 11 12 13 14 15 16 17 18 19 20 21 22 23 24 25 26 27 28 29 30 31 32 33 34 35 36 37 38 39 40 41 42 43 44 45 46 47 48 49 50
000
ASUS46 KSEW 111010
RWRWA

WASHINGTON REGIONAL WEATHER ROUNDUP
NATIONAL WEATHER SERVICE SEATTLE WA
200 AM PST THU FEB 11 2016

NOTE:"FAIR" INDICATES FEW OR NO CLOUDS BELOW 12,000 FEET WITH NO
SIGNIFICANT WEATHER AND/OR OBSTRUCTIONS TO VISIBILITY.

WAZ505-507>509-111100-
SEATTLE, TACOMA, EVERETT, AND VICINITY

CITY           SKY/WX    TMP DP  RH WIND       PRES   REMARKS
EVERETT        PTCLDY    47  44  90 E6        30.27F
BOEING FIELD   CLOUDY    44  43  96 CALM      30.26F
RENTON         CLOUDY    46  44  93 NW3       30.25F FOG
SEATAC AIRPORT CLOUDY    48  46  93 N7        30.25F
JBLM-MCCHORD   FOG       43  43 100 CALM      30.24F VSB 1/2
PUYALLUP       FAIR      45  45 100 CALM      30.24F
BREMERTON      CLOUDY    45  43  93 CALM      30.30S
JBLM-FT LEWIS  NOT AVBL
TACOMA NARROWS CLOUDY    48  47  96 VRB5      30.25F
$$

WAZ001-503-506-510-514-515-111100-
NORTH INTERIOR

CITY           SKY/WX    TMP DP  RH WIND       PRES   REMARKS
BELLINGHAM     FOG       39  38  96 CALM      30.28S VSB 1/2
FRIDAY HARBOR  FOG       39  39 100 CALM      30.28S VSB 3/4
EASTSOUND      PTCLDY    41  41 100 CALM      30.27S FOG
PORT ANGELES   CLOUDY    44  41  89 SW7       30.24F
EDIZ HOOK      FAIR      46  43  90 CALM      30.25F
PORT TOWNSEND  FAIR      43  43 100 E5        30.26F FOG
NAS WHIDBEY    FOG       41  41 100 SE7       30.31F VSB 1/4
ARLINGTON      PTCLDY    39  34  81 N3        30.29F
BURLINGTON     MOCLDY    45  45 100 NE5       30.28S
$$

WAZ020-022-039-040-504-511-512-111100-
SOUTHWEST INTERIOR

CITY           SKY/WX    TMP DP  RH WIND       PRES   REMARKS
SHELTON        CLOUDY    46  45  96 N5        30.23F
OLYMPIA        CLOUDY    43  43 100 CALM      30.25S FOG
CHEHALIS       FAIR      45  45 100 NE3       30.23F
KELSO          MOCLDY    48  45  87 N5        30.23S
VANCOUVER      CLOUDY    48  46  93 CALM      30.19F
SCAPPOOSE, OR  CLOUDY    50  48  93 NW5       30.18F
PORTLAND, OR   CLOUDY    49  45  86 S3        30.20F
$$

WAZ021-516-517-111100-
WASHINGTON COAST

CITY           SKY/WX    TMP DP  RH WIND       PRES   REMARKS
FORKS          CLOUDY    44  42  93 E5        30.19F
HOQUIAM        CLOUDY    50  47  89 E9        30.19F
ASTORIA, OR    CLOUDY    50  49  96 NE8       30.16F
$$

WAZ019-023-024-040-518-519-111100-
CASCADE MOUNTAINS AND COLUMBIA GORGE

CITY           SKY/WX    TMP DP  RH WIND       PRES   REMARKS
STAMPEDE PASS  NOT AVBL
TROUTDALE, OR  CLOUDY    52  44  74 E9        30.18F
THE DALLES, OR CLOUDY    42  38  85 E3        30.28F
$$

WAZ026-027-041>044-520-521-111100-
EAST SLOPES

CITY           SKY/WX    TMP DP  RH WIND       PRES   REMARKS
OMAK           CLOUDY    34  31  88 CALM      30.34F
WENATCHEE      CLOUDY    33  29  85 W5        30.33R
ELLENSBURG     CLOUDY    31  27  85 E7        30.29S
YAKIMA         CLOUDY    37  32  82 CALM      30.30F
$$

WAZ028-034-035-111100-
COLUMBIA BASIN

CITY           SKY/WX    TMP DP  RH WIND       PRES   REMARKS
EPHRATA        CLOUDY    35  33  92 N7        30.32R
MOSES LAKE     CLOUDY    33  31  92 N7        30.33R
PASCO          CLOUDY    38  36  92 NW5       30.33R
HERMISTON, OR  CLOUDY    41  37  86 N3        30.29R
$$

WAZ036>038-111100-
NORTHEAST WASHINGTON

CITY           SKY/WX    TMP DP  RH WIND       PRES   REMARKS
SPOKANE GEIGER CLOUDY    35  33  92 S6        30.28S FOG
SPOKANE FELTS  CLOUDY    34  33  96 N3        30.31R FOG
FAIRCHILD AFB  FOG       32  32 100 W3        30.28S VSB 1/4
COEURDALENE,ID CLOUDY    36  34  93 SE3       30.27R
DEER PARK      CLOUDY    32  31  96 N3        30.32R
$$

WAZ029>033-111100-
SOUTHEAST WASHINGTON

CITY           SKY/WX    TMP DP  RH WIND       PRES   REMARKS
PULLMAN        CLOUDY    42  34  73 E3        30.32R
LEWISTON, ID   CLOUDY    48  34  58 CALM      30.32R
WALLA WALLA    CLOUDY    45  39  79 E5        30.28F
PENDLETON, OR  CLOUDY    43  35  73 E5        30.27F
$$



USA.gov is the U.S. government's official web portal to all federal, state and local government web resources and services.